[[{"header":{"parameterUnit":"m.s-1","parameterCategory":1,"la1":30.2991,"la2":30.254,"lo1":-89.0895,"lo2":-89.0444,"dy":0.0017,"dx":0.0017,"nx":28,"ny":28,"refTime":"2023-10-30T09:00:00:Z","depth":0,"parameterNumber":2,"parameterNumberName":"U-component_of_WINDS"},"data":[0,0,0,0,0,0,0,0,0,0,0,0,0,0,0,0,0,0,0,0,0,0,0,0,0,0,0,0,0,0,0,0,0,0,0,0,0,0,0,0,0,0,0,0,0,0,0,0,0,0,0,0,0,0,0,0,0,0,1.8201,1.8201,0,1.8163,1.8163,1.8162,1.8131,1.8131,1.8131,1.813,1.8089,1.8088,1.8087,0,0,0,0,0,0,0,0,0,0,0,0,0,1.8246,1.8245,1.8201,1.8201,1.82,1.8163,1.8163,1.8162,1.8131,1.8131,1.813,1.813,1.8089,1.8088,1.8087,0,0,0,0,0,0,0,0,0,0,0,0,0,1.8219,1.8245,1.8201,1.8181,1.8178,1.8163,1.8163,1.8162,1.8131,1.8131,1.813,1.813,1.8089,1.8088,1.8087,1.8089,0,0,1.8083,1.8083,0,0,0,0,0,0,0,0,1.8221,1.8217,1.8184,1.8182,1.8179,1.8151,1.8163,1.8137,1.8131,1.8149,1.813,1.813,1.811,1.8107,1.8101,1.8087,1.8085,1.8083,1.8083,1.8082,1.8082,0,0,0,0,0,0,0,1.8223,1.8219,1.8186,1.8184,1.8181,1.8173,1.8168,1.8158,1.8132,1.8147,1.8145,1.8141,1.8109,1.8102,1.81,1.8085,1.8083,1.8082,1.8081,1.8081,1.8071,1.8071,0,0,0,0,0,0,1.8228,1.8221,1.8187,1.8185,1.8199,1.8172,1.8167,1.8161,1.8133,1.8128,1.8142,1.814,1.8104,1.8101,1.8098,1.8098,1.8082,1.8081,1.808,1.807,1.8071,1.8072,0,0,0,0,0,0,1.8229,1.8225,1.8189,1.8202,1.8197,1.8172,1.8165,1.816,1.8154,1.8128,1.8123,1.814,1.8104,1.81,1.8092,1.8096,1.808,1.8079,1.807,1.8071,1.8071,1.8099,0,0,0,0,0,0,1.823,1.8226,1.8226,1.8202,1.8196,1.8184,1.8165,1.816,1.8152,1.8149,1.8125,1.8121,1.8103,1.8094,1.8091,1.8094,1.8078,1.8069,1.807,1.8071,1.8097,1.81,1.8103,0,0,0,0,0,1.8232,1.8235,1.8227,1.8223,1.8197,1.8184,1.818,1.8161,1.8153,1.8153,1.8137,1.8121,1.8097,1.8093,1.8089,1.8093,1.8069,1.807,1.8071,1.8096,1.81,1.8103,0,0,0,0,0,0,1.8259,1.8232,1.8222,1.8217,1.8203,1.8179,1.8178,1.8165,1.8153,1.8151,1.8126,1.8121,1.8116,1.8104,1.81,1.8093,1.8081,1.8081,1.8101,1.8104,1.8107,1.8109,1.8077,0,0,0,0,0,1.8265,1.8257,1.8233,1.8232,1.8225,1.8203,1.8197,1.8183,1.8167,1.8161,1.8144,1.8129,1.8118,1.8111,1.8099,1.8096,1.809,1.8097,1.8099,1.8102,1.8102,1.8099,1.8102,1.8075,1.8075,1.8075,0,0,1.8276,1.826,1.8257,1.8237,1.8224,1.8217,1.8198,1.8191,1.8184,1.816,1.8151,1.8138,1.812,1.8114,1.8111,1.8104,1.8108,1.8103,1.8105,1.8104,1.8101,1.8103,1.8105,1.8076,1.8075,1.8075,0,0,1.8292,1.828,1.8277,1.8265,1.8247,1.8233,1.8232,1.821,1.8201,1.8192,1.8173,1.8165,1.8147,1.8134,1.8125,1.8139,1.8124,1.8136,1.8149,1.8147,1.8149,1.8151,1.8155,1.8157,1.8136,1.8136,1.8136,0,1.8308,1.8296,1.8277,1.8271,1.8262,1.8241,1.8238,1.8227,1.8206,1.82,1.8193,1.817,1.8156,1.8147,1.8151,1.8144,1.8143,1.8137,1.8151,1.8152,1.8153,1.8157,1.8159,1.8138,1.8137,1.8137,1.8137,0,1.8316,1.8308,1.8308,1.8289,1.8281,1.8276,1.8256,1.825,1.8238,1.8224,1.8216,1.8198,1.8183,1.818,1.8168,1.817,1.8166,1.8155,1.8142,1.8158,1.8161,1.8162,1.814,1.8139,1.8139,1.8138,0,0,1.8346,1.8318,1.8318,1.8309,1.8288,1.8281,1.8276,1.8262,1.8257,1.8244,1.8238,1.8223,1.8214,1.8204,1.819,1.8188,1.8199,1.8177,1.8177,1.8181,1.82,1.8207,1.8209,1.819,1.819,1.8191,1.8201,0,1.8358,1.8347,1.833,1.8325,1.8317,1.8298,1.8293,1.8279,1.8267,1.8258,1.8244,1.8234,1.8222,1.8216,1.8214,1.8198,1.8202,1.8198,1.8184,1.8183,1.8187,1.8211,1.8218,1.8229,1.8202,1.8202,1.8202,0,1.8369,1.8358,1.8352,1.8332,1.8328,1.8324,1.831,1.8303,1.8287,1.8278,1.8268,1.8254,1.8246,1.8236,1.8226,1.8223,1.8216,1.8208,1.8208,1.8205,1.8193,1.8207,1.8232,1.8233,1.8204,1.8204,1.8204,0,1.8391,1.8374,1.8368,1.8361,1.8339,1.8336,1.8327,1.8311,1.8304,1.8291,1.8286,1.8273,1.8266,1.8256,1.8238,1.8232,1.823,1.8218,1.8221,1.8222,1.822,1.822,1.8243,1.8219,1.8218,1.8218,1.8218,0,1.8405,1.8401,1.8378,1.8374,1.837,1.8351,1.8348,1.8336,1.8323,1.8316,1.8299,1.8293,1.827,1.8262,1.8248,1.8241,1.8238,1.823,1.8226,1.8231,1.8232,1.8225,1.8224,1.8219,1.8219,1.8219,1.8219,0,1.8427,1.8411,1.8403,1.8383,1.8378,1.8376,1.8358,1.8354,1.8341,1.8333,1.833,1.831,1.8299,1.8281,1.8265,1.8255,1.8251,1.8245,1.8256,1.8253,1.8258,1.8257,1.8276,1.8277,1.8253,1.8254,1.8254,0,1.8436,1.8433,1.8413,1.8408,1.8399,1.8391,1.8384,1.8366,1.8359,1.8342,1.834,1.8328,1.8317,1.8301,1.8284,1.8272,1.8265,1.8273,1.8263,1.8268,1.8264,1.8264,1.8263,1.8274,1.8274,1.8275,1.8275,0,1.8454,1.8446,1.8437,1.8425,1.8418,1.8407,1.8396,1.8393,1.8372,1.8366,1.8355,1.8347,1.8331,1.8319,1.8305,1.8294,1.8281,1.8279,1.8279,1.8282,1.8289,1.8284,1.8261,1.8278,1.8277,1.8277,1.8277,1.8277,1.8469,1.8466,1.8451,1.8442,1.8432,1.8422,1.8417,1.8404,1.8395,1.8381,1.8371,1.8361,1.8346,1.8326,1.8316,1.8308,1.8302,1.8302,1.8302,1.8302,1.8303,1.8292,1.8305,1.8305,1.8305,1.8305,1.8305,0,1.8485,1.8475,1.8467,1.8452,1.8445,1.8435,1.8422,1.8416,1.8408,1.8396,1.8386,1.8374,1.8363,1.8346,1.8334,1.833,1.8324,1.8327,1.8326,1.8324,1.831,1.8311,1.8333,1.8333,1.8333,1.8332,1.8332,1.8332,1.8492,1.8486,1.8477,1.8466,1.8456,1.8447,1.844,1.8431,1.8421,1.8409,1.84,1.839,1.8376,1.8362,1.8352,1.8347,1.8343,1.8348,1.8341,1.8328,1.8325,1.8323,1.8323,1.8347,1.8347,1.8356,1.8356,1.8356]},{"header":{"parameterUnit":"m.s-1","parameterCategory":1,"la1":30.2991,"la2":30.254,"lo1":-89.0895,"lo2":-89.0444,"dy":0.0017,"dx":0.0017,"nx":28,"ny":28,"refTime":"2023-10-30T09:00:00:Z","depth":0,"parameterNumber":3,"parameterNumberName":"V-component_of_WINDS"},"data":[0,0,0,0,0,0,0,0,0,0,0,0,0,0,0,0,0,0,0,0,0,0,0,0,0,0,0,0,0,0,0,0,0,0,0,0,0,0,0,0,0,0,0,0,0,0,0,0,0,0,0,0,0,0,0,0,0,0,-8.3067,-8.3069,0,-8.3323,-8.3326,-8.3329,-8.3259,-8.3254,-8.3249,-8.3244,-8.3502,-8.3513,-8.3524,0,0,0,0,0,0,0,0,0,0,0,0,0,-8.2512,-8.2523,-8.3066,-8.307,-8.3073,-8.3322,-8.3326,-8.3329,-8.326,-8.3254,-8.3248,-8.3242,-8.3498,-8.3512,-8.3525,0,0,0,0,0,0,0,0,0,0,0,0,0,-8.2759,-8.2526,-8.3066,-8.3069,-8.3071,-8.3322,-8.3326,-8.333,-8.3261,-8.3254,-8.3246,-8.3239,-8.3493,-8.351,-8.3527,-8.3789,0,0,-8.3581,-8.3588,0,0,0,0,0,0,0,0,-8.2745,-8.278,-8.3065,-8.3069,-8.3072,-8.3251,-8.3225,-8.3484,-8.3263,-8.3189,-8.3244,-8.3235,-8.3424,-8.3447,-8.3512,-8.3801,-8.3812,-8.3582,-8.3593,-8.36,-8.3605,0,0,0,0,0,0,0,-8.2728,-8.2768,-8.3168,-8.3069,-8.3074,-8.3055,-8.3082,-8.3274,-8.3347,-8.3195,-8.3191,-8.3222,-8.3425,-8.3495,-8.3517,-8.3816,-8.3582,-8.3597,-8.3608,-8.3615,-8.4333,-8.4341,0,0,0,0,0,0,-8.2709,-8.2754,-8.3159,-8.3175,-8.2887,-8.3072,-8.3101,-8.3202,-8.3344,-8.3359,-8.3228,-8.3218,-8.3469,-8.3497,-8.3526,-8.3842,-8.36,-8.3617,-8.3627,-8.4324,-8.4335,-8.4344,0,0,0,0,0,0,-8.2697,-8.2746,-8.3149,-8.2964,-8.3014,-8.3089,-8.3202,-8.3211,-8.3281,-8.337,-8.3382,-8.3287,-8.3464,-8.3501,-8.3725,-8.385,-8.3624,-8.364,-8.4314,-8.4328,-8.434,-8.4477,0,0,0,0,0,0,-8.2682,-8.2742,-8.2844,-8.2967,-8.3024,-8.3346,-8.321,-8.3221,-8.3312,-8.3301,-8.3428,-8.3442,-8.3461,-8.3699,-8.3742,-8.387,-8.3654,-8.4303,-8.432,-8.4335,-8.4461,-8.4493,-8.452,0,0,0,0,0,-8.2662,-8.2871,-8.2849,-8.2898,-8.3153,-8.3353,-8.3386,-8.3405,-8.3322,-8.3424,-8.3481,-8.3438,-8.3829,-8.3722,-8.377,-8.3906,-8.4296,-8.4315,-8.4334,-8.4448,-8.4487,-8.4519,0,0,0,0,0,0,-8.2759,-8.2887,-8.2864,-8.3119,-8.3226,-8.3341,-8.347,-8.3445,-8.3576,-8.3559,-8.3576,-8.3605,-8.3834,-8.3891,-8.377,-8.4166,-8.405,-8.408,-8.412,-8.4158,-8.4186,-8.4168,-8.3669,0,0,0,0,0,-8.281,-8.2964,-8.3066,-8.3282,-8.3336,-8.3395,-8.3482,-8.3488,-8.3598,-8.3643,-8.3716,-8.3823,-8.397,-8.4067,-8.4207,-8.4469,-8.4495,-8.4585,-8.4614,-8.4638,-8.4664,-8.4806,-8.4847,-8.4408,-8.4408,-8.4407,0,0,-8.2917,-8.3006,-8.3102,-8.3303,-8.3387,-8.3544,-8.3433,-8.3604,-8.372,-8.3668,-8.3884,-8.3941,-8.4062,-8.4306,-8.4417,-8.4361,-8.4791,-8.4663,-8.4681,-8.4694,-8.483,-8.4872,-8.4909,-8.4421,-8.4418,-8.4416,0,0,-8.3193,-8.3276,-8.3464,-8.355,-8.3678,-8.3716,-8.3761,-8.388,-8.3917,-8.4134,-8.4098,-8.4236,-8.4489,-8.4577,-8.4655,-8.4963,-8.4928,-8.5008,-8.5161,-8.53,-8.5334,-8.5365,-8.5475,-8.5515,-8.5034,-8.5034,-8.5034,0,-8.3309,-8.3546,-8.3564,-8.3739,-8.3828,-8.379,-8.398,-8.4062,-8.4229,-8.4291,-8.4226,-8.4544,-8.4622,-8.4886,-8.4961,-8.5025,-8.5077,-8.4994,-8.5328,-8.5359,-8.5388,-8.5493,-8.5535,-8.5043,-8.5042,-8.5041,-8.504,0,-8.3683,-8.3848,-8.3985,-8.4149,-8.4253,-8.4435,-8.4479,-8.4582,-8.4578,-8.4622,-8.4843,-8.4936,-8.5095,-8.5157,-8.5155,-8.5421,-8.5383,-8.5323,-8.5207,-8.5439,-8.5538,-8.5578,-8.5056,-8.5052,-8.505,-8.5048,0,0,-8.4027,-8.4199,-8.4249,-8.4323,-8.4462,-8.4589,-8.4768,-8.4925,-8.5013,-8.5129,-8.5279,-8.5494,-8.544,-8.5529,-8.5535,-8.5657,-8.5896,-8.5583,-8.5586,-8.5638,-8.6195,-8.624,-8.6286,-8.5873,-8.5881,-8.5887,-8.6185,0,-8.4315,-8.4633,-8.4654,-8.4941,-8.5093,-8.5058,-8.5214,-8.5315,-8.5361,-8.5495,-8.5543,-8.5697,-8.5614,-8.5667,-8.5786,-8.5842,-8.6008,-8.582,-8.6012,-8.6019,-8.5984,-8.6338,-8.6386,-8.6663,-8.6224,-8.6231,-8.6235,0,-8.4694,-8.4824,-8.5126,-8.5244,-8.5308,-8.5448,-8.5594,-8.5723,-8.5836,-8.586,-8.5959,-8.5949,-8.6131,-8.6008,-8.6259,-8.6131,-8.621,-8.625,-8.6261,-8.628,-8.6142,-8.6367,-8.6751,-8.6793,-8.6297,-8.6292,-8.6287,0,-8.4915,-8.5165,-8.5379,-8.5443,-8.5585,-8.5684,-8.5747,-8.5853,-8.5946,-8.6072,-8.6133,-8.6278,-8.6357,-8.6469,-8.6498,-8.6406,-8.6749,-8.6628,-8.6773,-8.6773,-8.6847,-8.6842,-8.725,-8.6898,-8.6897,-8.6896,-8.6895,0,-8.5235,-8.5422,-8.548,-8.5612,-8.5819,-8.584,-8.6045,-8.6101,-8.6196,-8.6336,-8.6314,-8.6446,-8.6476,-8.6613,-8.6636,-8.6841,-8.6877,-8.69,-8.6905,-8.6903,-8.69,-8.6956,-8.6938,-8.6907,-8.6905,-8.6903,-8.6901,0,-8.5518,-8.5565,-8.5795,-8.5911,-8.5944,-8.6092,-8.619,-8.6316,-8.6358,-8.6536,-8.6579,-8.6645,-8.6806,-8.6845,-8.7036,-8.7052,-8.7294,-8.7279,-8.7257,-8.7256,-8.7399,-8.7385,-8.7858,-8.7921,-8.7526,-8.753,-8.7533,0,-8.5719,-8.5863,-8.5994,-8.6088,-8.6156,-8.6307,-8.6402,-8.6427,-8.6527,-8.6667,-8.6776,-8.6934,-8.7062,-8.732,-8.7384,-8.753,-8.7519,-8.7675,-8.7541,-8.7535,-8.7522,-8.7514,-8.7528,-8.77,-8.7704,-8.7708,-8.771,0,-8.6072,-8.6088,-8.6227,-8.6375,-8.649,-8.6607,-8.6718,-8.6796,-8.6836,-8.6949,-8.7115,-8.7214,-8.741,-8.7568,-8.7715,-8.7778,-8.7752,-8.7752,-8.7794,-8.7794,-8.7775,-8.7788,-8.7327,-8.7741,-8.7738,-8.7736,-8.7734,-8.7733,-8.6321,-8.6447,-8.6559,-8.6715,-8.6802,-8.6907,-8.7031,-8.7089,-8.7228,-8.7391,-8.7396,-8.7576,-8.7685,-8.788,-8.7952,-8.8091,-8.8044,-8.8104,-8.8119,-8.8134,-8.8147,-8.7753,-8.8118,-8.8117,-8.8116,-8.8116,-8.8115,0,-8.6673,-8.6744,-8.6887,-8.7045,-8.7167,-8.7133,-8.7254,-8.7358,-8.7518,-8.7622,-8.7749,-8.7939,-8.8091,-8.8167,-8.8318,-8.8415,-8.8407,-8.8454,-8.8447,-8.8463,-8.818,-8.813,-8.8458,-8.8458,-8.8458,-8.8458,-8.8458,-8.8458,-8.6871,-8.7082,-8.7111,-8.7365,-8.7433,-8.7611,-8.7683,-8.778,-8.7863,-8.8077,-8.8204,-8.8253,-8.8346,-8.8503,-8.8641,-8.866,-8.8716,-8.877,-8.8782,-8.8517,-8.8482,-8.8449,-8.8402,-8.8782,-8.8782,-8.9053,-8.9055,-8.9057]}]]